Find Starlink 31322

NORAD ID: 59168 Int'l Des: 2024-044 Owner: SPXS Country: US Constellation: starlink operational
LEOCIRCULAR

Live Position

Loading 3D Globe...

About Starlink 31322

Description loading...

Upcoming Passes

Passes for default location (London). Set your location on the main map for personalized predictions.

Altitude History

Loading altitude history...

Two-Line Element Set

1 59168U 24044S 26121.53361897 .00006850 00000-0 25785-3 0 9996
2 59168 42.9962 168.9048 0001166 229.2875 130.7875 15.27627104121671
Epoch: May 1, 2026 • Age: 7 hours

Current Status

Altitude 481.6 km
Velocity 7.63 km/s
Sub-Earth Point 8.37°N, 178.74°W
Launch Date Mar 4, 2024
Age 2.1 years
Type internet

Technical Details

Classification Payload
Mass 730.00 kg
Dry Mass 700.00 kg
Total Mass 730.00 kg
Length 0.30 m
Diameter 4.10 m
Span 29.00 m
Shape Box + pan
Manufacturer SPXS
Bus Type Starlink V2M
Phase Status In Orbit
Owner/State SPXS/US

Most Searched